User: anonymous
Location: Mason Neck State Park
(38.6428°N, 77.1981°W)
Time: 06:13:44
(UTC-04:00)
Language:

Cosmos 1400 Rocket - Orbit

View from above orbital plane
View from above orbital plane
View from above satellite
View from above satellite

Ground track
Ground track

The orbit data is extracted from the following two-line orbital elements,

1 13403U 82079B   14242.10299215  .00001420  00000-0  10050-3 0  6453
2 13403 081.1728 358.3214 0036800 043.4346 316.9765 15.03697158742923
Epoch (UTC): 30 August 2014 02:28:18
Eccentricity: 0.0036800
inclination: 81.1728°
perigee height: 530 km
apogee height: 581 km
right ascension of ascending node: 358.3214°
argument of perigee: 43.4346°
revolutions per day: 15.03697158
mean anomaly at epoch: 316.9765°
orbit number at epoch: 74292

The dashed part of the orbit path shows where the satellite is in the earth's shadow,  

DLR